This demonstration page uses our WeatherBlox Daily Observations layout. Learn more.

Left ArrowRight Arrow

39.51506, -84.39828

Hourly Observations for March 8, 2021

Temp ( °F °C ) Dew Point ( °F °C ) Humidity (%) Winds ( mph kmh ) Pressure ( in mb ) Visibility ( mi km ) Precip ( " mm )
12:15 am 00:15 Clear 25 -3.8 19 -7.2 78 78 N N/A 30.52 1033 10 16 N/A
12:35 am 00:35 Clear 24 -4.2 18 -7.8 76 76 N 5 7 30.52 1033 10 16 N/A
12:55 am 00:55 Clear 24 -4.2 19 -7.2 80 80 NNE 3 6 30.52 1033 10 16 N/A
1:15 am 01:15 Clear 24 -4.5 19 -7.1 82 82 NNE 3 6 30.52 1033 10 16 N/A
1:35 am 01:35 Clear 23 -4.9 18 -7.6 82 82 N N/A 30.52 1034 10 16 N/A
1:55 am 01:55 Clear 23 -5.2 19 -7.3 85 85 N N/A 30.52 1034 10 16 N/A
2:15 am 02:15 Clear 22 -5.5 19 -7.4 87 87 N N/A 30.52 1034 10 16 N/A
2:35 am 02:35 Clear 22 -5.5 18 -7.8 84 84 N N/A 30.52 1034 10 16 N/A
2:55 am 02:55 Clear 22 -5.8 18 -7.6 87 87 N N/A 30.52 1034 10 16 N/A
3:15 am 03:15 Clear 22 -5.7 18 -7.6 87 87 N N/A 30.52 1034 10 16 N/A
3:35 am 03:35 Clear 22 -5.6 19 -7.4 87 87 N N/A 30.52 1034 10 16 N/A
3:55 am 03:55 Clear 21 -6 19 -7.5 89 89 N N/A 30.52 1034 10 16 N/A
4:15 am 04:15 Clear 21 -6.1 18 -7.7 89 89 N N/A 30.52 1034 10 16 N/A
4:35 am 04:35 Clear 21 -5.9 19 -7.4 89 89 N N/A 30.53 1034 10 16 N/A
4:55 am 04:55 Clear 22 -5.7 20 -6.9 91 91 N N/A 30.53 1034 10 16 N/A
5:15 am 05:15 Clear 22 -5.8 19 -7.4 89 89 N N/A 30.54 1034 10 16 N/A
5:35 am 05:35 Clear 21 -6 19 -7.1 92 92 N N/A 30.54 1034 10 16 N/A
5:55 am 05:55 Clear 20 -6.8 18 -7.8 93 93 N N/A 30.54 1034 10 16 N/A
6:15 am 06:15 Clear 21 -6.3 19 -7.5 91 91 N N/A 30.54 1034 10 16 N/A
6:35 am 06:35 Clear 22 -5.6 19 -7 90 90 WNW 3 6 30.55 1035 10 16 N/A
6:55 am 06:55 Clear 21 -6.1 19 -7.2 92 92 N N/A 30.55 1035 10 16 N/A
7:15 am 07:15 Sunny 22 -5.7 20 -6.8 92 92 N N/A 30.55 1035 10 16 N/A
7:35 am 07:35 Sunny 22 -5.3 20 -6.8 89 89 N N/A 30.55 1035 10 16 N/A
7:55 am 07:55 Sunny 24 -4.2 22 -5.4 91 91 N N/A 30.55 1034 10 16 N/A
8:15 am 08:15 Sunny 28 -2.1 25 -4 87 87 N N/A 30.54 1034 10 16 N/A
8:35 am 08:35 Sunny 31 -0.5 23 -5 72 72 W 3 6 30.54 1034 10 16 N/A
8:55 am 08:55 Partly Cloudy 34 1 23 -5 65 65 WSW 3 6 30.53 1034 10 16 N/A
9:15 am 09:15 Sunny 36 2.4 24 -4.7 60 60 WSW 3 6 30.53 1034 10 16 N/A
9:35 am 09:35 Sunny 38 3.6 23 -4.9 54 54 WSW 5 7 30.53 1034 10 16 N/A
9:55 am 09:55 Sunny 41 5.1 23 -5.2 48 48 SW 6 9 30.51 1033 10 16 N/A
10:15 am 10:15 Sunny 44 6.7 24 -4.5 45 45 SW 7 11 30.51 1033 10 16 N/A
10:35 am 10:35 Sunny 46 8 24 -4.7 41 41 SSW 10 17 30.50 1033 10 16 N/A
10:55 am 10:55 Sunny 49 9.3 25 -3.8 40 40 SSW 12 19 30.49 1033 10 16 N/A
11:15 am 11:15 Sunny 51 10.8 26 -3.3 37 37 SSW 10 17 30.48 1032 10 16 N/A
11:35 am 11:35 Sunny 54 12.2 27 -2.6 36 36 SSW 13 20 30.46 1032 10 16 N/A
11:55 am 11:55 Sunny 56 13.2 29 -1.9 35 35 SSW 15 24 30.46 1032 10 16 N/A
12:15 pm 12:15 Sunny 57 13.7 29 -1.7 35 35 SSW 13 20 30.44 1031 10 16 N/A
12:35 pm 12:35 Sunny 58 14.3 30 -1.3 34 34 SW 14 22 30.44 1031 10 16 N/A
12:55 pm 12:55 Sunny 59 15.2 31 -0.6 34 34 SW 16 26 30.43 1030 10 16 N/A
1:15 pm 13:15 Sunny 60 15.5 31 -0.7 33 33 SSW 14 22 30.42 1030 10 16 N/A
1:35 pm 13:35 Sunny 61 16.1 31 -0.3 33 33 SSW 14 22 30.40 1030 10 16 N/A
1:55 pm 13:55 Sunny 62 16.8 32 undefined 32 32 SSW 14 22 30.39 1029 10 16 N/A
2:15 pm 14:15 Sunny 63 17.4 32 0.1 31 31 SSW 13 20 30.38 1029 10 16 N/A
2:35 pm 14:35 Sunny 65 18.1 33 0.3 30 30 WSW 16 26 30.37 1028 10 16 N/A
2:55 pm 14:55 Sunny 65 18.3 32 0.1 29 29 SW 17 28 30.36 1028 10 16 N/A
3:15 pm 15:15 Sunny 65 18.5 32 -0.2 28 28 WSW 13 20 30.36 1028 10 16 N/A
3:35 pm 15:35 Sunny 66 18.9 32 undefined 28 28 SW 21 33 30.36 1028 10 16 N/A
3:55 pm 15:55 Sunny 65 18.6 31 -0.5 28 28 WSW 15 24 30.35 1028 10 16 N/A
4:15 pm 16:15 Sunny 65 18.6 31 -0.5 28 28 WSW 13 20 30.35 1028 10 16 N/A
4:35 pm 16:35 Sunny 65 18.6 31 -0.5 28 28 WSW 14 22 30.35 1028 10 16 N/A
4:55 pm 16:55 Sunny 65 18.4 31 -0.6 28 28 W 16 26 30.35 1028 10 16 N/A
5:15 pm 17:15 Sunny 64 18 32 -0.2 29 29 WSW 15 24 30.35 1028 10 16 N/A
5:35 pm 17:35 Sunny 64 17.6 32 -0.1 30 30 SW 13 20 30.34 1027 10 16 N/A
5:55 pm 17:55 Sunny 63 17 31 -0.3 31 31 SW 13 20 30.35 1028 10 16 N/A
6:15 pm 18:15 Sunny 61 16.3 32 -0.2 33 33 SW 10 17 30.35 1028 10 16 N/A
6:35 pm 18:35 Sunny 57 14 32 undefined 39 39 SW 9 15 30.36 1028 10 16 N/A
6:55 pm 18:55 Clear 56 13.6 31 -0.3 39 39 SW 7 11 30.37 1028 10 16 N/A
7:15 pm 19:15 Clear 54 12.3 32 -0.2 42 42 SSW 6 9 30.38 1029 10 16 N/A
7:35 pm 19:35 Clear 55 12.5 32 -0.1 42 42 SSW 6 9 30.38 1029 10 16 N/A
7:55 pm 19:55 Clear 47 8.1 33 0.3 58 58 SSW 6 9 30.40 1030 10 16 N/A
8:15 pm 20:15 Clear 43 6.3 34 1.2 70 70 SW 5 7 30.41 1030 10 16 N/A
8:35 pm 20:35 Clear 46 7.5 35 1.5 66 66 WSW 5 7 30.41 1030 10 16 N/A
8:55 pm 20:55 Clear 42 5.3 34 1.1 75 75 WSW 3 6 30.41 1030 10 16 N/A
9:15 pm 21:15 Clear 43 6.1 34 1.2 71 71 N N/A 30.41 1030 10 16 N/A
9:35 pm 21:35 Clear 43 6.2 35 1.6 73 73 N N/A 30.41 1030 10 16 N/A
9:55 pm 21:55 Clear 42 5.5 35 1.8 77 77 N N/A 30.42 1030 10 16 N/A
10:15 pm 22:15 Clear 41 4.9 34 1.3 78 78 N N/A 30.42 1030 10 16 N/A
10:35 pm 22:35 Clear 40 4.7 34 1 77 77 N N/A 30.42 1030 10 16 N/A
10:55 pm 22:55 Clear 40 4.5 34 1.3 80 80 N N/A 30.42 1030 10 16 N/A
11:15 pm 23:15 Clear 39 4 34 1.3 83 83 N N/A 30.42 1030 10 16 N/A
11:35 pm 23:35 Clear 39 4 34 1.3 83 83 N N/A 30.42 1030 10 16 N/A
11:55 pm 23:55 Clear 38 3.2 34 1.3 88 88 N N/A 30.43 1030 10 16 N/A

Powered by AerisWeather